Tracking 23583 objects as of 1-Aug-2021
HD Live streaming from Space Station
objects crossing your sky now

FENGYUN 1C DEB

Track FENGYUN 1C DEB now!
10-day predictions


NORAD ID: 33709
Int'l Code: 1999-025DGW
Perigee: 424.9 km
Apogee: 454.0 km
Inclination: 99.0 °
Period: 93.2 minutes
Semi major axis: 6810 km
RCS: 0.0093 m2 (small)
Launch date: May 10, 1999
Source: People's Republic of China (PRC)
Launch site: Taiyaun Space Center, China (TSC)

Note: This is SATELLITE DEBRIS
aabbcc
Your satellite tracking list
Your tracking list is empty




NASA's NSSDC Master Catalog

Two Line Element Set (TLE):
1 33709U 99025DGW 21212.25027561  .00107386  00000-0  22580-2 0  9997
2 33709  99.0115 140.4336 0021352 130.3571 229.9541 15.44669653402325
Source of the keplerian elements: AFSPC